| time (UTC) | temp F | wind direction | speed MPH | gust MPH | rain 1hr in | rain 24hr in | rain mn in | humidity % | barometer mb |
| 20260502130710 | 76 | 233 | 8.0 | 11.0 | 0.00 | 0.00 | 0.00 | 88 | 1012.5 |
| 20260502130208 | 76 | 191 | 5.0 | 7.0 | 0.00 | 0.00 | 0.00 | 90 | 1012.5 |
| 20260502123654 | 74 | 225 | 2.0 | 3.0 | 0.00 | 0.00 | 0.00 | 95 | 1012.5 |
| 20260502123150 | 74 | 132 | 4.0 | 5.0 | 0.00 | 0.00 | 0.00 | 95 | 1012.1 |
| 20260502122647 | 74 | 184 | 5.0 | 6.0 | 0.00 | 0.00 | 0.00 | 96 | 1012.1 |
| 20260502122144 | 73 | 146 | 3.0 | 3.0 | 0.00 | 0.00 | 0.00 | 96 | 1012.1 |
| 20260502121642 | 73 | 195 | 3.0 | 3.0 | 0.00 | 0.00 | 0.00 | 97 | 1012.5 |
| 20260502121139 | 72 | 169 | 3.0 | 5.0 | 0.00 | 0.00 | 0.00 | 98 | 1012.1 |
| 20260502120635 | 72 | 171 | 4.0 | 5.0 | 0.00 | 0.00 | 0.00 | 98 | 1012.5 |
| 20260502120132 | 72 | 186 | 3.0 | 5.0 | 0.00 | 0.00 | 0.00 | 99 | 1012.1 |
| 20260502115630 | 72 | 220 | 3.0 | 5.0 | 0.00 | 0.00 | 0.00 | 99 | 1012.1 |
| 20260502115126 | 71 | 174 | 3.0 | 3.0 | 0.00 | 0.00 | 0.00 | 99 | 1012.5 |
| 20260502114622 | 71 | 178 | 3.0 | 3.0 | 0.00 | 0.00 | 0.00 | 99 | 1012.1 |
| 20260502114120 | 71 | 151 | 4.0 | 5.0 | 0.00 | 0.00 | 0.00 | 99 | 1012.1 |
| 20260502113617 | 71 | 189 | 2.0 | 2.0 | 0.00 | 0.00 | 0.00 | 99 | 1012.1 |
| 20260502113115 | 71 | 202 | 2.0 | 2.0 | 0.00 | 0.00 | 0.00 | 99 | 1012.1 |
| 20260502112613 | 71 | 171 | 1.0 | 1.0 | 0.00 | 0.00 | 0.00 | 99 | 1012.1 |
| 20260502112110 | 71 | 196 | 2.0 | 2.0 | 0.00 | 0.00 | 0.00 | 99 | 1012.1 |
| 20260502111608 | 71 | 180 | 2.0 | 2.0 | 0.00 | 0.00 | 0.00 | 99 | 1011.8 |
| 20260502111105 | 71 | 182 | 1.0 | 2.0 | 0.00 | 0.00 | 0.00 | 99 | 1011.8 |
| 20260502110602 | 71 | 184 | 1.0 | 1.0 | 0.00 | 0.00 | 0.00 | 99 | 1011.8 |
| 20260502110059 | 71 | 167 | 2.0 | 2.0 | 0.00 | 0.00 | 0.00 | 99 | 1011.4 |
| 20260502105557 | 70 | 169 | 1.0 | 2.0 | 0.00 | 0.00 | 0.00 | 99 | 1011.4 |
| 20260502105054 | 71 | 168 | 1.0 | 1.0 | 0.00 | 0.00 | 0.00 | 99 | 1011.4 |
| 20260502104551 | 70 | 182 | 3.0 | 3.0 | 0.00 | 0.00 | 0.00 | 99 | 1011.1 |
| 20260502104048 | 71 | 187 | 1.0 | 1.0 | 0.00 | 0.00 | 0.00 | 99 | 1011.1 |
| 20260502103546 | 70 | 165 | 1.0 | 1.0 | 0.00 | 0.00 | 0.00 | 99 | 1011.1 |
| 20260502103044 | 70 | 184 | 1.0 | 1.0 | 0.00 | 0.00 | 0.00 | 99 | 1011.4 |
| 20260502102540 | 70 | 185 | 0.0 | 0.0 | 0.00 | 0.00 | 0.00 | 99 | 1011.4 |
| 20260502102037 | 70 | 185 | 0.0 | 0.0 | 0.00 | 0.00 | 0.00 | 99 | 1011.4 |
| 20260502101535 | 70 | 185 | 0.0 | 0.0 | 0.00 | 0.00 | 0.00 | 99 | 1011.4 |
| 20260502101033 | 70 | 184 | 0.0 | 0.0 | 0.00 | 0.00 | 0.00 | 99 | 1011.4 |
| 20260502100531 | 71 | 186 | 0.0 | 0.0 | 0.00 | 0.00 | 0.00 | 99 | 1011.4 |
| 20260502091506 | 71 | 192 | 0.0 | 0.0 | 0.00 | 0.00 | 0.00 | 99 | 1012.1 |
| 20260502091003 | 72 | 200 | 1.0 | 1.0 | 0.00 | 0.00 | 0.00 | 99 | 1012.1 |
| 20260502090500 | 72 | 215 | 1.0 | 1.0 | 0.00 | 0.00 | 0.00 | 99 | 1012.5 |
| 20260502071355 | 73 | 221 | 3.0 | 5.0 | 0.00 | 0.00 | 0.00 | 93 | 1011.8 |
| 20260502070853 | 73 | 216 | 1.0 | 1.0 | 0.00 | 0.00 | 0.00 | 93 | 1012.1 |
| 20260502070350 | 73 | 243 | 2.0 | 2.0 | 0.00 | 0.00 | 0.00 | 93 | 1011.8 |
| 20260502065849 | 73 | 220 | 2.0 | 2.0 | 0.00 | 0.00 | 0.00 | 93 | 1012.1 |
| 20260502065347 | 74 | 211 | 1.0 | 1.0 | 0.00 | 0.00 | 0.00 | 92 | 1012.1 |
| 20260502064844 | 74 | 251 | 1.0 | 1.0 | 0.00 | 0.00 | 0.00 | 92 | 1012.5 |
| 20260502064342 | 74 | 228 | 2.0 | 2.0 | 0.00 | 0.00 | 0.00 | 91 | 1012.1 |
| 20260502063839 | 74 | 219 | 2.0 | 3.0 | 0.00 | 0.00 | 0.00 | 91 | 1012.5 |
| 20260502063337 | 74 | 224 | 3.0 | 5.0 | 0.00 | 0.00 | 0.00 | 91 | 1012.5 |
| 20260502062834 | 74 | 279 | 4.0 | 6.0 | 0.00 | 0.00 | 0.00 | 91 | 1012.5 |
| 20260502062331 | 74 | 261 | 3.0 | 3.0 | 0.00 | 0.00 | 0.00 | 91 | 1012.5 |
| 20260502061830 | 74 | 212 | 2.0 | 2.0 | 0.00 | 0.00 | 0.00 | 91 | 1012.5 |
| 20260502061328 | 74 | 219 | 1.0 | 2.0 | 0.00 | 0.00 | 0.00 | 90 | 1012.5 |
| 20260502060823 | 74 | 240 | 2.0 | 2.0 | 0.00 | 0.00 | 0.00 | 90 | 1012.5 |
| 20260502060318 | 74 | 246 | 3.0 | 5.0 | 0.00 | 0.00 | 0.00 | 90 | 1012.5 |
| 20260502055816 | 75 | 269 | 4.0 | 5.0 | 0.00 | 0.00 | 0.00 | 89 | 1012.5 |
| 20260502055314 | 75 | 214 | 3.0 | 3.0 | 0.00 | 0.00 | 0.00 | 88 | 1012.5 |
| 20260502054814 | 75 | 205 | 3.0 | 3.0 | 0.00 | 0.00 | 0.00 | 87 | 1012.5 |
| 20260502054311 | 75 | 215 | 2.0 | 2.0 | 0.00 | 0.00 | 0.00 | 87 | 1012.8 |
| 20260502053808 | 75 | 231 | 4.0 | 5.0 | 0.00 | 0.00 | 0.00 | 86 | 1012.8 |
| 20260502053305 | 75 | 219 | 3.0 | 3.0 | 0.00 | 0.00 | 0.00 | 86 | 1012.8 |
| 20260502052803 | 74 | 225 | 3.0 | 3.0 | 0.00 | 0.00 | 0.00 | 86 | 1012.5 |
| 20260502052300 | 74 | 221 | 2.0 | 2.0 | 0.00 | 0.00 | 0.00 | 86 | 1012.8 |
| 20260502051758 | 74 | 197 | 2.0 | 3.0 | 0.00 | 0.00 | 0.00 | 87 | 1012.8 |
| 20260502051257 | 75 | 253 | 3.0 | 3.0 | 0.00 | 0.00 | 0.00 | 86 | 1012.8 |
| 20260502050752 | 75 | 218 | 3.0 | 3.0 | 0.00 | 0.00 | 0.00 | 87 | 1012.8 |
| 20260502050248 | 75 | 242 | 3.0 | 3.0 | 0.00 | 0.00 | 0.00 | 87 | 1012.8 |
| 20260502045746 | 75 | 241 | 1.0 | 2.0 | 0.00 | 0.00 | 0.00 | 88 | 1012.8 |
| 20260502045243 | 74 | 257 | 4.0 | 5.0 | 0.00 | 0.00 | 0.00 | 91 | 1012.8 |
| 20260502044739 | 74 | 273 | 2.0 | 3.0 | 0.00 | 0.00 | 0.00 | 94 | 1012.8 |
| 20260502044235 | 73 | 207 | 1.0 | 1.0 | 0.00 | 0.00 | 0.00 | 95 | 1012.8 |
| 20260502043733 | 74 | 205 | 0.0 | 1.0 | 0.00 | 0.00 | 0.00 | 94 | 1012.5 |
| 20260502043231 | 74 | 204 | 0.0 | 0.0 | 0.00 | 0.00 | 0.00 | 94 | 1012.8 |
| 20260502042730 | 74 | 204 | 0.0 | 0.0 | 0.00 | 0.00 | 0.00 | 94 | 1012.8 |
| 20260502042228 | 74 | 205 | 0.0 | 1.0 | 0.00 | 0.00 | 0.00 | 94 | 1012.8 |
| 20260502041725 | 74 | 204 | 1.0 | 1.0 | 0.00 | 0.00 | 0.00 | 94 | 1012.8 |
| 20260502041222 | 74 | 203 | 0.0 | 0.0 | 0.00 | 0.00 | 0.00 | 94 | 1012.5 |
| 20260502040719 | 74 | 203 | 0.0 | 0.0 | 0.00 | 0.00 | 0.00 | 94 | 1012.5 |
| 20260502040216 | 74 | 203 | 0.0 | 0.0 | 0.00 | 0.00 | 0.00 | 94 | 1012.8 |
| 20260502035712 | 74 | 203 | 0.0 | 0.0 | 0.00 | 0.00 | 0.00 | 93 | 1012.5 |
| 20260502035209 | 74 | 203 | 0.0 | 0.0 | 0.00 | 0.00 | 0.00 | 93 | 1012.5 |
| 20260502034706 | 74 | 203 | 0.0 | 0.0 | 0.00 | 0.00 | 0.00 | 93 | 1012.5 |
| 20260502034205 | 75 | 203 | 0.0 | 0.0 | 0.00 | 0.00 | 0.00 | 92 | 1013.1 |
| 20260502033702 | 75 | 204 | 0.0 | 0.0 | 0.00 | 0.00 | 0.00 | 92 | 1012.8 |
| 20260502033200 | 75 | 204 | 0.0 | 0.0 | 0.00 | 0.00 | 0.00 | 91 | 1012.8 |
| 20260502032656 | 75 | 204 | 0.0 | 0.0 | 0.00 | 0.00 | 0.00 | 91 | 1013.1 |
| 20260502032152 | 75 | 204 | 1.0 | 1.0 | 0.00 | 0.00 | 0.00 | 91 | 1012.8 |
| 20260502031650 | 76 | 204 | 1.0 | 1.0 | 0.00 | 0.00 | 0.00 | 91 | 1012.8 |
| 20260502031148 | 76 | 200 | 1.0 | 1.0 | 0.00 | 0.00 | 0.00 | 90 | 1013.1 |
| 20260502030647 | 76 | 231 | 1.0 | 1.0 | 0.00 | 0.00 | 0.00 | 90 | 1013.1 |
| 20260502030144 | 76 | 191 | 0.0 | 0.0 | 0.00 | 0.00 | 0.00 | 90 | 1013.1 |
| 20260502025641 | 76 | 193 | 0.0 | 0.0 | 0.00 | 0.00 | 0.00 | 90 | 1012.8 |
| 20260502025139 | 76 | 359 | 1.0 | 2.0 | 0.00 | 0.00 | 0.00 | 89 | 1012.8 |
| 20260502024637 | 77 | 97 | 1.0 | 2.0 | 0.00 | 0.00 | 0.00 | 89 | 1013.1 |
| 20260502024134 | 77 | 49 | 1.0 | 2.0 | 0.00 | 0.00 | 0.00 | 89 | 1013.1 |
| 20260502023633 | 77 | 355 | 1.0 | 2.0 | 0.00 | 0.00 | 0.00 | 88 | 1013.1 |
| 20260502023129 | 77 | 126 | 0.0 | 1.0 | 0.00 | 0.00 | 0.00 | 88 | 1013.1 |
| 20260502022626 | 77 | 64 | 2.0 | 2.0 | 0.00 | 0.00 | 0.00 | 88 | 1013.1 |
| 20260502022124 | 77 | 61 | 2.0 | 2.0 | 0.00 | 0.00 | 0.00 | 87 | 1013.1 |
| 20260502021621 | 77 | 61 | 2.0 | 2.0 | 0.00 | 0.00 | 0.00 | 87 | 1013.1 |
| 20260502021118 | 78 | 33 | 1.0 | 2.0 | 0.00 | 0.00 | 0.00 | 87 | 1013.1 |
| 20260502020615 | 78 | 41 | 1.0 | 2.0 | 0.00 | 0.00 | 0.00 | 86 | 1013.1 |
| 20260502020112 | 78 | 43 | 2.0 | 2.0 | 0.00 | 0.00 | 0.00 | 85 | 1013.1 |
| 20260502015610 | 78 | 14 | 2.0 | 3.0 | 0.00 | 0.00 | 0.00 | 85 | 1013.1 |
| 20260502015106 | 78 | 150 | 0.0 | 0.0 | 0.00 | 0.00 | 0.00 | 84 | 1012.8 |
| 20260502014603 | 78 | 151 | 0.0 | 0.0 | 0.00 | 0.00 | 0.00 | 84 | 1013.1 |
| 20260502014100 | 79 | 325 | 2.0 | 2.0 | 0.00 | 0.00 | 0.00 | 83 | 1012.8 |
| 20260502013555 | 79 | 55 | 3.0 | 3.0 | 0.00 | 0.00 | 0.00 | 83 | 1012.8 |
| 20260502013052 | 79 | 61 | 3.0 | 3.0 | 0.00 | 0.00 | 0.00 | 82 | 1012.8 |
| 20260502012549 | 80 | 329 | 2.0 | 2.0 | 0.00 | 0.00 | 0.00 | 81 | 1012.8 |
| 20260502012047 | 80 | 4 | 1.0 | 2.0 | 0.00 | 0.00 | 0.00 | 81 | 1012.8 |
| 20260502011544 | 80 | 35 | 1.0 | 2.0 | 0.00 | 0.00 | 0.00 | 79 | 1012.8 |
| 20260502011040 | 80 | 30 | 3.0 | 3.0 | 0.00 | 0.00 | 0.00 | 78 | 1012.8 |
| 20260502010537 | 80 | 60 | 1.0 | 2.0 | 0.00 | 0.00 | 0.00 | 78 | 1012.8 |
| 20260502010033 | 81 | 34 | 2.0 | 2.0 | 0.00 | 0.00 | 0.00 | 78 | 1012.8 |
| 20260502005531 | 81 | 55 | 3.0 | 3.0 | 0.00 | 0.00 | 0.00 | 78 | 1012.5 |
| 20260502005029 | 81 | 59 | 1.0 | 1.0 | 0.00 | 0.00 | 0.00 | 78 | 1012.5 |
| 20260502004524 | 81 | 113 | 1.0 | 1.0 | 0.00 | 0.00 | 0.00 | 78 | 1012.5 |
| 20260502004022 | 82 | 20 | 1.0 | 2.0 | 0.00 | 0.00 | 0.00 | 78 | 1012.5 |
| 20260502003520 | 82 | 356 | 2.0 | 2.0 | 0.00 | 0.00 | 0.00 | 79 | 1012.1 |
| 20260502003016 | 82 | 146 | 0.0 | 0.0 | 0.00 | 0.00 | 0.00 | 78 | 1012.1 |
| 20260502002512 | 82 | 62 | 3.0 | 5.0 | 0.00 | 0.00 | 0.00 | 78 | 1012.1 |
| 20260502002010 | 82 | 67 | 2.0 | 3.0 | 0.00 | 0.00 | 0.00 | 78 | 1011.8 |
| 20260502001507 | 82 | 45 | 5.0 | 6.0 | 0.00 | 0.00 | 0.00 | 77 | 1011.8 |
| 20260502001005 | 83 | 43 | 3.0 | 5.0 | 0.00 | 0.00 | 0.00 | 77 | 1011.8 |
| 20260502000503 | 83 | 44 | 2.0 | 3.0 | 0.00 | 0.00 | 0.00 | 76 | 1011.4 |
| 20260501235959 | 83 | 52 | 4.0 | 5.0 | 0.00 | 0.00 | 0.00 | 74 | 1011.8 |
| 20260501235455 | 84 | 67 | 5.0 | 9.0 | 0.00 | 0.00 | 0.00 | 73 | 1011.8 |
| 20260501234950 | 84 | 37 | 5.0 | 6.0 | 0.00 | 0.00 | 0.00 | 72 | 1011.8 |
| 20260501234447 | 84 | 43 | 3.0 | 3.0 | 0.00 | 0.00 | 0.00 | 71 | 1011.4 |
| 20260501233946 | 85 | 55 | 1.0 | 2.0 | 0.00 | 0.00 | 0.00 | 70 | 1011.1 |
| 20260501233443 | 87 | 38 | 4.0 | 5.0 | 0.00 | 0.00 | 0.00 | 66 | 1011.1 |
| 20260501232938 | 88 | 247 | 2.0 | 3.0 | 0.00 | 0.00 | 0.00 | 51 | 1011.1 |
| 20260501232436 | 88 | 358 | 3.0 | 3.0 | 0.00 | 0.00 | 0.00 | 51 | 1011.1 |
| 20260501231933 | 89 | 211 | 1.0 | 1.0 | 0.00 | 0.00 | 0.00 | 50 | 1010.8 |
| 20260501231431 | 89 | 209 | 1.0 | 2.0 | 0.00 | 0.00 | 0.00 | 50 | 1010.8 |
| 20260501230929 | 89 | 229 | 6.0 | 8.0 | 0.00 | 0.00 | 0.00 | 47 | 1010.8 |
| 20260501230428 | 89 | 226 | 3.0 | 3.0 | 0.00 | 0.00 | 0.00 | 46 | 1010.4 |
| 20260501225925 | 89 | 248 | 3.0 | 3.0 | 0.00 | 0.00 | 0.00 | 46 | 1010.8 |
| 20260501225423 | 89 | 234 | 2.0 | 2.0 | 0.00 | 0.00 | 0.00 | 47 | 1010.8 |
| 20260501224918 | 89 | 202 | 2.0 | 3.0 | 0.00 | 0.00 | 0.00 | 47 | 1010.8 |
| 20260501224416 | 89 | 200 | 1.0 | 1.0 | 0.00 | 0.00 | 0.00 | 47 | 1010.4 |
| 20260501223912 | 89 | 217 | 3.0 | 3.0 | 0.00 | 0.00 | 0.00 | 47 | 1010.4 |
| 20260501223408 | 89 | 196 | 3.0 | 3.0 | 0.00 | 0.00 | 0.00 | 48 | 1010.4 |
| 20260501222904 | 89 | 214 | 1.0 | 2.0 | 0.00 | 0.00 | 0.00 | 49 | 1010.4 |
| 20260501222402 | 89 | 283 | 3.0 | 3.0 | 0.00 | 0.00 | 0.00 | 48 | 1010.4 |
| 20260501221858 | 89 | 207 | 1.0 | 2.0 | 0.00 | 0.00 | 0.00 | 49 | 1010.8 |
| 20260501221355 | 90 | 267 | 5.0 | 7.0 | 0.00 | 0.00 | 0.00 | 48 | 1010.1 |
| 20260501220853 | 90 | 266 | 3.0 | 5.0 | 0.00 | 0.00 | 0.00 | 48 | 1010.4 |
| 20260501220350 | 90 | 208 | 3.0 | 3.0 | 0.00 | 0.00 | 0.00 | 48 | 1010.8 |
| 20260501215847 | 91 | 280 | 5.0 | 6.0 | 0.00 | 0.00 | 0.00 | 47 | 1010.4 |
| 20260501215343 | 91 | 251 | 3.0 | 6.0 | 0.00 | 0.00 | 0.00 | 46 | 1010.4 |
| 20260501214839 | 91 | 233 | 4.0 | 5.0 | 0.00 | 0.00 | 0.00 | 47 | 1010.8 |
| 20260501214334 | 92 | 248 | 2.0 | 5.0 | 0.00 | 0.00 | 0.00 | 46 | 1010.4 |
| 20260501213830 | 91 | 286 | 3.0 | 5.0 | 0.00 | 0.00 | 0.00 | 47 | 1010.4 |
| 20260501213327 | 91 | 179 | 3.0 | 5.0 | 0.00 | 0.00 | 0.00 | 47 | 1010.4 |
| 20260501212823 | 91 | 211 | 1.0 | 1.0 | 0.00 | 0.00 | 0.00 | 48 | 1010.4 |
| 20260501212320 | 91 | 227 | 4.0 | 6.0 | 0.00 | 0.00 | 0.00 | 47 | 1010.4 |
| 20260501211817 | 91 | 273 | 3.0 | 3.0 | 0.00 | 0.00 | 0.00 | 47 | 1010.1 |
| 20260501211314 | 90 | 264 | 3.0 | 3.0 | 0.00 | 0.00 | 0.00 | 49 | 1010.1 |
| 20260501210811 | 90 | 135 | 3.0 | 5.0 | 0.00 | 0.00 | 0.00 | 49 | 1010.4 |
| 20260501210308 | 89 | 190 | 3.0 | 3.0 | 0.00 | 0.00 | 0.00 | 50 | 1010.8 |
| 20260501205804 | 90 | 191 | 3.0 | 3.0 | 0.00 | 0.00 | 0.00 | 49 | 1010.8 |
| 20260501205301 | 90 | 229 | 8.0 | 10.0 | 0.00 | 0.00 | 0.00 | 49 | 1010.8 |
| 20260501204758 | 90 | 256 | 5.0 | 6.0 | 0.00 | 0.00 | 0.00 | 50 | 1010.8 |
| 20260501204254 | 90 | 198 | 2.0 | 2.0 | 0.00 | 0.00 | 0.00 | 49 | 1010.8 |
| 20260501203750 | 91 | 239 | 5.0 | 6.0 | 0.00 | 0.00 | 0.00 | 49 | 1010.8 |
| 20260501203248 | 90 | 147 | 4.0 | 5.0 | 0.00 | 0.00 | 0.00 | 50 | 1010.8 |
| 20260501202745 | 89 | 196 | 5.0 | 5.0 | 0.00 | 0.00 | 0.00 | 50 | 1011.1 |
| 20260501202242 | 89 | 197 | 3.0 | 3.0 | 0.00 | 0.00 | 0.00 | 50 | 1010.8 |
| 20260501201739 | 90 | 208 | 6.0 | 7.0 | 0.00 | 0.00 | 0.00 | 50 | 1010.8 |
| 20260501201236 | 90 | 161 | 1.0 | 1.0 | 0.00 | 0.00 | 0.00 | 48 | 1010.8 |
| 20260501200732 | 89 | 201 | 1.0 | 2.0 | 0.00 | 0.00 | 0.00 | 49 | 1011.1 |
| 20260501200229 | 91 | 229 | 6.0 | 7.0 | 0.00 | 0.00 | 0.00 | 48 | 1011.1 |
| 20260501195727 | 90 | 211 | 2.0 | 2.0 | 0.00 | 0.00 | 0.00 | 48 | 1011.1 |
| 20260501195223 | 91 | 265 | 5.0 | 6.0 | 0.00 | 0.00 | 0.00 | 48 | 1011.1 |
| 20260501194719 | 91 | 207 | 5.0 | 7.0 | 0.00 | 0.00 | 0.00 | 47 | 1011.4 |
| 20260501194214 | 91 | 260 | 7.0 | 9.0 | 0.00 | 0.00 | 0.00 | 46 | 1011.1 |
| 20260501193711 | 90 | 164 | 2.0 | 2.0 | 0.00 | 0.00 | 0.00 | 48 | 1011.4 |
| 20260501193210 | 90 | 202 | 7.0 | 8.0 | 0.00 | 0.00 | 0.00 | 48 | 1011.8 |
| 20260501192707 | 90 | 215 | 5.0 | 8.0 | 0.00 | 0.00 | 0.00 | 48 | 1011.8 |
| 20260501192204 | 90 | 197 | 4.0 | 5.0 | 0.00 | 0.00 | 0.00 | 47 | 1012.1 |
| 20260501191701 | 90 | 238 | 5.0 | 6.0 | 0.00 | 0.00 | 0.00 | 47 | 1012.1 |
| 20260501191159 | 89 | 255 | 5.0 | 5.0 | 0.00 | 0.00 | 0.00 | 48 | 1012.5 |
| 20260501190655 | 90 | 241 | 2.0 | 3.0 | 0.00 | 0.00 | 0.00 | 48 | 1012.1 |
| 20260501190150 | 90 | 261 | 7.0 | 7.0 | 0.00 | 0.00 | 0.00 | 48 | 1012.5 |
| 20260501185646 | 89 | 234 | 5.0 | 7.0 | 0.00 | 0.00 | 0.00 | 53 | 1012.5 |
| 20260501185142 | 88 | 192 | 3.0 | 5.0 | 0.00 | 0.00 | 0.00 | 53 | 1012.8 |
| 20260501184639 | 89 | 204 | 4.0 | 6.0 | 0.00 | 0.00 | 0.00 | 52 | 1012.5 |
| 20260501184133 | 89 | 267 | 5.0 | 8.0 | 0.00 | 0.00 | 0.00 | 51 | 1012.8 |
| 20260501183630 | 89 | 263 | 2.0 | 2.0 | 0.00 | 0.00 | 0.00 | 50 | 1012.8 |
| 20260501183127 | 91 | 229 | 2.0 | 5.0 | 0.00 | 0.00 | 0.00 | 50 | 1012.8 |
| 20260501182623 | 90 | 258 | 3.0 | 3.0 | 0.00 | 0.00 | 0.00 | 51 | 1013.1 |
| 20260501182120 | 89 | 245 | 4.0 | 6.0 | 0.00 | 0.00 | 0.00 | 54 | 1012.8 |
| 20260501181617 | 89 | 247 | 4.0 | 6.0 | 0.00 | 0.00 | 0.00 | 55 | 1012.8 |
| 20260501181114 | 88 | 272 | 3.0 | 5.0 | 0.00 | 0.00 | 0.00 | 55 | 1013.1 |
| 20260501180613 | 89 | 235 | 5.0 | 7.0 | 0.00 | 0.00 | 0.00 | 55 | 1013.1 |
| 20260501180108 | 89 | 324 | 3.0 | 3.0 | 0.00 | 0.00 | 0.00 | 54 | 1013.1 |
| 20260501175605 | 89 | 219 | 3.0 | 3.0 | 0.00 | 0.00 | 0.00 | 54 | 1013.5 |
| 20260501175102 | 87 | 228 | 4.0 | 5.0 | 0.00 | 0.00 | 0.00 | 57 | 1013.1 |
| 20260501174559 | 87 | 267 | 8.0 | 10.0 | 0.00 | 0.00 | 0.00 | 57 | 1013.5 |
| 20260501174056 | 86 | 266 | 3.0 | 3.0 | 0.00 | 0.00 | 0.00 | 58 | 1013.1 |
| 20260501173554 | 87 | 242 | 9.0 | 11.0 | 0.00 | 0.00 | 0.00 | 58 | 1013.5 |
| 20260501173050 | 87 | 268 | 4.0 | 5.0 | 0.00 | 0.00 | 0.00 | 57 | 1013.5 |
| 20260501172546 | 87 | 248 | 5.0 | 8.0 | 0.00 | 0.00 | 0.00 | 57 | 1013.5 |
| 20260501172041 | 87 | 224 | 4.0 | 6.0 | 0.00 | 0.00 | 0.00 | 57 | 1013.5 |
| 20260501171538 | 86 | 208 | 5.0 | 6.0 | 0.00 | 0.00 | 0.00 | 58 | 1013.8 |
| 20260501171035 | 87 | 274 | 2.0 | 2.0 | 0.00 | 0.00 | 0.00 | 58 | 1013.5 |
| 20260501170531 | 87 | 236 | 4.0 | 5.0 | 0.00 | 0.00 | 0.00 | 56 | 1013.1 |
| 20260501170029 | 86 | 226 | 1.0 | 2.0 | 0.00 | 0.00 | 0.00 | 61 | 1013.8 |
| 20260501165526 | 87 | 263 | 5.0 | 6.0 | 0.00 | 0.00 | 0.00 | 60 | 1013.5 |
| 20260501165024 | 86 | 251 | 6.0 | 8.0 | 0.00 | 0.00 | 0.00 | 62 | 1013.5 |
| 20260501164521 | 87 | 298 | 3.0 | 7.0 | 0.00 | 0.00 | 0.00 | 59 | 1013.8 |
| 20260501164018 | 86 | 226 | 5.0 | 6.0 | 0.00 | 0.00 | 0.00 | 61 | 1014.2 |
| 20260501163514 | 87 | 264 | 7.0 | 8.0 | 0.00 | 0.00 | 0.00 | 61 | 1014.2 |
| 20260501163011 | 86 | 279 | 3.0 | 3.0 | 0.00 | 0.00 | 0.00 | 60 | 1014.2 |
| 20260501162507 | 86 | 207 | 3.0 | 3.0 | 0.00 | 0.00 | 0.00 | 62 | 1014.2 |
| 20260501162004 | 86 | 185 | 5.0 | 7.0 | 0.00 | 0.00 | 0.00 | 62 | 1014.5 |
| 20260501161502 | 87 | 257 | 1.0 | 2.0 | 0.00 | 0.00 | 0.00 | 60 | 1014.2 |
| 20260501160958 | 86 | 214 | 1.0 | 2.0 | 0.00 | 0.00 | 0.00 | 61 | 1014.2 |
| 20260501160455 | 85 | 234 | 1.0 | 2.0 | 0.00 | 0.00 | 0.00 | 62 | 1014.2 |
| 20260501155952 | 85 | 253 | 4.0 | 5.0 | 0.00 | 0.00 | 0.00 | 63 | 1014.2 |
| 20260501155449 | 85 | 291 | 5.0 | 5.0 | 0.00 | 0.00 | 0.00 | 62 | 1014.2 |
| 20260501154945 | 84 | 344 | 6.0 | 7.0 | 0.00 | 0.00 | 0.00 | 64 | 1014.2 |
| 20260501154443 | 84 | 220 | 6.0 | 7.0 | 0.00 | 0.00 | 0.00 | 64 | 1014.5 |
| 20260501153940 | 85 | 214 | 5.0 | 8.0 | 0.00 | 0.00 | 0.00 | 66 | 1014.2 |
| 20260501153438 | 85 | 205 | 7.0 | 8.0 | 0.00 | 0.00 | 0.00 | 66 | 1014.5 |
| 20260501152933 | 84 | 275 | 5.0 | 6.0 | 0.00 | 0.00 | 0.00 | 68 | 1014.5 |
| 20260501152431 | 83 | 263 | 6.0 | 8.0 | 0.00 | 0.00 | 0.00 | 69 | 1014.2 |
| 20260501151928 | 84 | 205 | 1.0 | 2.0 | 0.00 | 0.00 | 0.00 | 69 | 1014.2 |
| 20260501151425 | 83 | 236 | 5.0 | 6.0 | 0.00 | 0.00 | 0.00 | 70 | 1014.5 |
| 20260501150921 | 83 | 223 | 5.0 | 6.0 | 0.00 | 0.00 | 0.00 | 70 | 1014.2 |
| 20260501150417 | 82 | 238 | 3.0 | 3.0 | 0.00 | 0.00 | 0.00 | 71 | 1014.8 |
| 20260501145913 | 83 | 210 | 6.0 | 7.0 | 0.00 | 0.00 | 0.00 | 71 | 1014.5 |
| 20260501145410 | 82 | 106 | 3.0 | 5.0 | 0.00 | 0.00 | 0.00 | 72 | 1014.5 |
| 20260501144908 | 82 | 219 | 3.0 | 5.0 | 0.00 | 0.00 | 0.00 | 71 | 1014.5 |
| 20260501144403 | 82 | 49 | 3.0 | 3.0 | 0.00 | 0.00 | 0.00 | 72 | 1014.5 |